Wind_Speed
11 12 13 14 15 16 16 18 20 22 24 24 25 28 27 28 29 26 21 17 16 15 17 19 21 24 25 23 20 17 15 13 11 8 5 3 4 6 9 10 11 12 13 13 13 12 10 8 6 6 6 5 6 6 5 5 5 4 4 4 4 5 6 9 11 11 10 8 7 5 3 1 0 2 3 5 7 8 9 10 10 11 11 12 13
12 12 13 15 16 15 15 16 18 19 21 21 21 22 23 24 24 22 20 19 18 19 20 22 23 22 18 13 11 10 9 7 4 3 5 7 8 9 10 11 12 14 14 13 14 14 12 11 9 9 8 7 7 7 6 6 6 6 7 8 8 8 10 12 12 11 9 7 5 4 3 2 2 3 5 6 7 8 9 10 10 11 11 12 12
10 10 11 13 14 14 15 16 18 20 21 21 20 22 22 21 21 20 20 19 19 18 17 16 15 11 9 7 7 5 2 2 5 7 8 9 9 9 10 11 13 15 13 12 13 14 14 13 12 10 9 8 7 6 6 7 8 9 10 10 10 10 12 12 12 10 7 6 5 4 3 2 3 4 5 6 7 9 10 10 9 9 10 10 9
9 8 9 11 12 13 14 15 16 19 22 23 23 22 20 19 19 19 16 13 12 11 9 7 6 6 5 4 2 2 5 7 7 7 7 8 8 8 9 11 13 13 13 13 12 12 13 13 12 11 10 10 8 7 8 9 10 10 10 9 10 9 10 11 11 7 6 5 5 5 4 4 4 4 5 6 7 8 8 7 7 8 8 7 5
11 9 10 12 15 15 15 13 13 14 16 19 18 15 14 15 16 15 12 9 8 7 7 6 5 4 4 4 4 5 6 7 6 5 5 5 7 9 10 11 11 11 12 13 11 11 12 11 10 11 12 13 12 10 9 10 11 11 11 10 10 9 9 11 8 5 6 6 6 6 6 6 6 4 4 6 6 6 6 6 7 7 6 5 6
15 13 10 10 13 15 16 14 13 12 11 11 10 9 10 11 11 10 9 9 10 10 9 7 4 2 4 5 5 6 7 7 6 5 3 4 7 9 11 9 9 9 11 10 8 9 9 9 8 9 12 14 14 11 10 9 10 11 11 11 10 8 8 9 4 4 6 8 8 8 7 7 6 4 4 6 6 6 7 7 7 5 5 6 8
16 16 15 13 11 11 11 11 10 9 8 8 9 10 10 10 11 11 12 13 13 11 8 5 1 3 6 6 6 6 6 6 5 4 3 2 4 8 9 6 5 8 9 8 6 7 6 7 8 9 10 11 12 10 8 6 6 7 8 8 8 7 6 4 4 5 7 8 8 8 8 7 5 5 5 7 7 8 8 7 5 5 6 8 10
16 17 17 16 15 14 13 13 13 14 15 14 14 13 13 13 12 12 13 13 12 9 6 3 1 4 7 8 7 7 7 4 3 1 1 1 4 6 5 3 4 7 7 8 5 6 6 6 7 7 8 8 8 7 6 4 3 4 5 6 7 5 3 3 5 6 6 8 8 9 9 7 6 6 7 8 9 9 7 6 5 6 8 11 13
16 16 16 16 15 14 14 14 15 15 15 14 13 13 13 12 12 12 12 12 11 9 6 3 2 5 8 9 7 5 4 3 1 2 4 1 3 3 3 4 6 8 5 5 4 4 5 6 5 5 6 6 6 6 5 3 3 3 4 4 4 4 3 5 7 6 7 8 9 11 9 7 8 7 8 9 9 8 6 5 6 8 11 12 13
15 15 15 14 13 12 12 12 13 13 12 12 11 11 11 11 11 11 11 12 11 10 7 4 3 5 6 7 5 2 0 1 2 4 3 2 4 2 3 5 5 5 2 2 4 4 3 4 3 4 5 4 5 5 4 2 2 2 3 3 4 5 4 6 7 7 9 10 12 12 9 7 9 9 9 9 8 6 5 7 8 11 12 12 13
16 14 13 12 11 10 11 11 11 11 10 10 9 9 9 8 7 7 9 10 11 10 9 6 5 8 7 5 4 1 1 6 5 5 2 3 5 2 5 4 3 4 3 2 5 3 1 3 6 5 3 3 3 4 6 3 3 2 2 3 4 5 4 7 8 7 7 10 14 11 9 9 10 9 9 7 6 6 6 8 10 12 12 12 13
17 15 13 11 10 10 11 11 10 9 8 8 7 7 6 5 5 5 7 8 10 10 9 8 9 10 7 5 4 4 5 7 6 5 5 2 4 1 6 6 4 5 3 2 5 3 1 3 6 6 5 6 7 8 8 5 5 5 3 3 4 4 4 8 8 7 6 10 14 11 10 11 10 9 8 6 6 6 8 10 11 11 12 13 14
18 16 14 12 11 12 14 14 12 10 8 7 6 6 5 4 4 4 7 9 9 9 8 8 9 8 6 5 5 6 6 5 5 7 8 4 2 2 5 9 5 3 2 4 5 2 2 1 2 3 6 9 9 8 7 6 8 7 5 3 2 4 4 8 7 6 7 10 14 11 10 11 10 8 6 5 6 8 9 11 11 11 13 14 15
18 17 15 14 14 16 17 15 12 11 10 9 7 7 6 5 4 4 7 8 9 8 8 9 8 6 5 6 6 7 5 3 6 10 9 4 1 2 5 7 5 4 4 5 5 5 5 3 3 2 5 7 7 5 6 8 9 8 6 4 2 2 2 6 6 5 8 11 13 12 11 10 9 6 5 6 7 9 10 11 11 12 13 14 16
18 18 17 16 16 18 18 16 13 11 10 9 9 8 8 7 5 5 6 7 7 6 7 9 8 5 6 10 10 8 5 5 7 8 7 4 3 4 7 7 5 6 6 4 4 8 7 3 4 5 6 8 10 10 10 10 10 9 7 5 4 2 3 6 5 5 8 11 12 11 10 9 7 6 5 7 9 10 10 10 11 12 13 15 16
21 20 19 19 18 18 18 18 17 14 12 11 10 10 9 8 5 5 5 5 5 4 5 7 7 5 7 11 11 10 7 6 9 8 7 9 10 9 9 8 9 9 8 5 5 6 5 3 5 8 10 11 13 12 11 10 9 9 7 5 5 4 5 6 4 5 8 10 12 10 8 7 6 5 6 8 10 10 10 11 12 13 14 16 16
23 22 21 21 20 19 19 20 19 17 15 13 12 11 10 9 6 5 5 4 3 3 5 5 4 5 7 10 10 9 6 8 13 15 14 14 12 12 11 8 9 11 10 10 10 9 8 8 7 9 11 11 11 12 9 6 6 7 6 5 5 5 6 6 4 5 6 9 11 8 7 6 6 6 7 9 10 10 10 11 12 14 15 16 17
25 24 22 22 21 21 21 22 21 19 16 14 13 11 11 10 8 6 6 5 3 1 5 6 5 6 8 10 10 8 7 10 13 13 13 13 10 10 10 6 7 11 10 9 10 11 10 8 9 10 10 9 8 8 5 4 7 5 5 5 5 6 5 4 3 5 6 8 8 7 7 6 6 6 8 10 10 10 11 11 13 15 16 17 17
26 25 23 22 22 22 22 23 23 20 17 16 14 11 11 11 9 8 7 7 6 1 4 6 5 6 8 10 11 10 11 12 11 8 8 9 8 8 7 6 8 12 11 10 10 10 9 8 8 8 9 7 6 5 4 6 8 3 3 4 4 5 3 2 2 4 6 7 6 6 6 6 5 7 9 10 9 10 11 12 14 15 16 17 18
27 26 25 23 22 22 23 24 24 22 20 18 16 13 13 12 10 9 9 9 7 2 4 4 3 6 11 13 14 14 13 14 12 9 8 7 6 7 6 5 8 12 14 14 14 10 9 8 4 4 6 6 6 6 6 9 7 1 2 4 4 3 0 1 3 3 5 5 5 5 6 5 6 9 10 9 9 10 11 13 15 16 17 18 19
26 26 26 25 24 23 24 25 25 23 21 19 18 16 14 14 13 12 10 10 7 3 2 4 1 6 16 19 19 18 16 16 13 11 11 8 9 11 10 8 6 9 14 14 14 11 9 9 4 5 6 7 9 10 11 11 6 0 1 3 3 2 2 4 3 3 4 4 5 5 5 5 8 10 9 9 9 11 12 14 15 16 18 19 21
26 26 26 26 25 25 25 25 25 24 23 21 20 19 16 15 15 13 12 11 9 6 3 4 2 7 15 20 21 20 19 17 15 13 12 10 12 15 15 13 10 11 15 13 14 14 11 9 8 9 8 8 10 12 12 9 3 1 1 1 2 2 3 5 2 2 3 4 4 5 5 6 9 10 9 9 10 11 13 14 15 17 19 20 21
26 26 26 26 26 27 27 26 26 25 24 23 22 21 19 18 17 16 16 16 14 12 8 6 3 2 7 11 14 15 15 15 14 12 12 12 13 15 16 16 16 17 17 14 14 16 14 11 10 10 8 7 8 9 8 5 1 1 2 1 1 2 4 4 1 2 3 5 5 5 6 8 9 9 8 9 10 12 13 14 16 18 19 21 21
27 26 26 26 27 27 28 27 27 25 25 25 24 23 22 21 20 20 21 21 19 18 15 13 9 7 7 4 5 5 7 9 9 9 12 14 14 15 17 17 18 19 16 14 14 14 13 12 9 8 6 6 9 8 8 6 1 1 2 1 1 3 4 2 2 3 4 6 6 6 6 9 9 8 8 9 10 12 13 14 16 18 20 20 19
28 27 26 26 26 27 28 28 27 26 26 26 26 25 24 23 23 24 25 24 23 22 20 19 17 14 15 12 6 4 1 4 4 7 11 13 13 14 16 16 17 16 15 14 13 13 15 14 12 11 10 10 12 10 9 5 3 3 3 1 2 4 3 2 3 4 6 7 6 6 7 9 8 8 9 9 11 12 13 14 17 19 19 19 19
31 28 26 25 25 26 27 28 27 26 26 26 27 27 25 25 25 27 27 26 26 25 25 24 23 22 19 18 15 11 5 1 3 5 7 9 12 12 12 13 16 16 16 14 13 15 17 18 18 17 16 14 13 11 9 5 5 5 3 2 3 4 3 3 4 5 7 7 7 7 8 8 8 8 9 10 11 12 13 15 17 18 19 19 19
32 31 28 26 25 25 26 27 28 27 27 27 27 28 27 26 27 28 29 27 27 28 28 27 27 26 25 23 21 18 14 7 4 5 6 8 8 8 8 11 16 17 15 12 11 15 16 18 18 16 15 13 12 11 8 6 6 5 4 4 5 4 3 4 5 7 8 8 8 7 7 8 8 9 9 10 11 11 13 15 17 18 19 19 20
33 32 30 28 25 24 25 25 27 28 28 27 28 28 28 28 28 29 29 28 28 28 29 29 29 28 27 26 25 22 20 15 10 8 8 7 6 6 8 11 15 16 13 11 10 13 15 16 15 14 13 12 11 10 8 7 7 6 5 5 5 4 5 6 7 8 8 8 8 7 7 8 9 9 9 10 11 12 14 15 17 18 19 20 21
32 32 32 30 27 25 24 24 26 27 28 28 28 29 29 28 28 29 30 29 28 28 29 30 29 29 28 27 25 23 20 17 13 10 8 7 7 8 10 12 15 16 15 15 15 14 14 13 13 12 11 11 11 10 8 8 7 7 6 6 5 5 6 7 8 9 9 8 7 7 7 8 9 9 10 10 11 12 14 16 18 19 20 21 21
30 31 31 31 30 27 24 23 24 26 27 28 29 29 29 29 28 28 29 30 29 28 29 29 30 29 29 28 26 24 21 18 16 14 12 12 11 11 12 12 13 14 14 14 13 13 12 12 12 11 11 10 9 8 8 8 7 7 6 6 6 7 8 8 9 9 8 8 7 7 7 9 10 10 10 10 11 13 14 16 18 19 20 21 21
29 30 30 31 30 29 27 24 24 24 26 28 29 29 29 29 28 28 29 30 30 29 28 29 30 30 30 30 28 26 24 21 18 16 14 13 12 12 12 11 11 11 10 10 10 10 10 10 10 9 8 8 7 7 7 7 6 7 7 8 8 9 9 9 9 9 8 7 7 7 8 9 10 10 10 11 11 13 14 15 17 18 19 20 21
29 29 29 30 30 30 29 27 24 23 24 26 28 29 29 29 28 28 29 30 30 29 29 28 28 29 30 30 29 28 27 25 22 20 17 15 13 12 11 10 10 9 8 8 7 8 8 8 8 7 7 8 8 8 7 7 8 8 8 9 10 10 10 10 9 9 7 7 8 8 9 9 10 10 10 11 11 13 14 15 17 18 19 20 21
29 29 28 28 29 29 29 29 27 24 23 25 26 28 29 29 28 28 29 30 30 30 30 29 28 28 28 28 29 29 28 27 26 24 22 19 17 16 15 13 11 11 9 8 8 8 8 8 7 8 9 9 10 10 10 10 10 10 10 10 11 11 10 10 9 7 7 8 8 9 9 10 10 10 10 11 12 13 14 16 17 18 19 20 20
28 29 28 28 28 28 29 29 28 26 24 23 24 26 27 28 28 28 29 30 30 30 30 30 29 29 28 27 27 27 28 28 28 27 26 24 22 22 21 19 17 15 13 12 11 10 10 10 10 10 11 12 13 13 12 11 10 10 11 11 11 11 10 9 8 7 7 8 9 9 9 9 10 10 10 11 13 14 15 16 17 18 19 19 20
27 28 28 28 27 27 27 28 28 28 26 24 23 24 26 27 28 28 29 29 30 30 30 30 29 30 29 28 26 26 27 27 28 28 28 28 26 25 25 24 22 20 19 17 16 15 14 14 14 14 14 14 14 14 13 11 11 11 11 11 11 10 9 8 7 7 8 9 9 9 10 10 10 10 11 12 14 15 16 17 18 19 19 20 19
25 27 28 28 27 26 26 27 27 28 27 26 24 23 24 26 27 28 29 29 30 30 30 29 29 29 29 29 28 26 26 27 27 28 29 29 29 28 27 26 25 24 23 21 20 19 18 18 17 16 16 15 15 14 13 12 12 12 11 11 10 9 8 7 7 8 9 10 9 10 10 11 11 11 12 13 15 16 17 18 19 19 20 20 19
23 25 27 27 27 27 26 26 26 27 27 27 26 24 23 24 25 26 28 29 29 29 29 29 29 29 29 29 28 28 27 26 26 27 28 29 29 29 29 28 27 26 25 24 23 22 21 20 19 18 17 16 15 14 14 13 12 12 11 10 9 8 7 7 9 10 10 10 10 11 12 12 11 12 13 14 16 17 17 18 19 20 20 19 18
21 23 25 26 27 27 26 26 25 25 26 27 27 25 24 23 24 25 26 27 28 29 29 29 29 29 29 28 28 28 27 27 26 26 26 26 27 28 28 28 28 26 25 24 24 23 22 21 19 18 17 16 15 14 13 13 12 11 10 9 8 8 8 9 10 10 10 10 11 12 12 12 12 13 14 15 17 18 18 19 19 19 19 19 18
20 22 24 25 26 26 26 26 25 25 25 25 26 26 25 23 23 23 24 26 27 28 29 29 29 28 28 28 28 27 27 27 26 26 25 25 24 25 25 26 26 25 24 24 23 22 21 20 19 17 16 15 14 13 13 12 11 10 9 9 8 9 10 11 11 10 10 11 11 12 12 12 13 14 15 17 18 18 18 19 18 17 17 18 18
19 20 22 24 25 25 25 26 26 25 24 25 25 26 25 24 23 23 23 24 25 27 28 29 28 28 28 28 27 27 27 27 26 26 25 25 24 24 24 24 23 23 22 22 21 20 19 18 17 16 15 14 13 13 12 11 11 10 9 9 10 10 11 11 11 10 10 11 12 11 12 12 13 15 16 17 18 18 18 17 17 16 17 18 17
18 19 21 23 24 24 24 25 26 26 25 24 24 25 25 25 24 23 22 23 24 25 27 28 28 28 28 28 27 27 26 26 26 26 25 25 24 23 23 23 23 22 21 20 20 19 18 18 18 17 16 15 14 13 13 12 12 11 11 11 11 12 11 11 10 10 10 11 11 11 12 13 14 15 16 17 18 18 17 17 17 17 18 18 17
16 17 19 21 24 24 24 25 25 26 25 24 24 24 24 24 24 23 22 22 23 24 25 27 28 28 28 28 27 26 26 25 25 25 25 24 24 23 23 22 22 21 20 19 19 18 18 18 17 17 16 15 14 14 13 13 12 12 12 12 12 11 11 10 10 10 10 11 11 11 12 12 13 14 15 16 17 17 17 17 18 18 18 17 17
13 15 17 19 22 23 24 24 25 25 25 24 24 23 23 23 23 23 23 22 22 23 24 25 26 27 28 28 28 27 26 25 25 24 24 24 23 23 23 22 21 21 20 18 17 17 16 16 15 15 15 14 14 14 13 13 13 12 13 13 12 11 11 11 10 10 11 11 11 11 12 12 13 14 14 16 17 17 17 17 18 17 17 17 16
10 13 15 16 19 21 23 23 24 25 24 24 23 23 22 22 22 22 23 23 22 22 22 23 24 26 27 28 28 28 26 25 25 24 23 23 23 22 22 21 21 21 20 19 18 17 16 15 14 13 14 14 14 14 14 14 14 13 13 13 12 11 11 11 10 10 11 11 11 12 12 13 14 14 15 16 16 16 17 17 16 17 16 16 16
8 10 13 15 16 19 21 22 23 24 24 24 23 23 22 21 20 21 22 22 22 22 22 22 23 24 25 27 27 27 27 26 25 24 24 23 23 22 21 21 21 21 20 19 18 17 17 16 15 14 14 14 14 14 14 14 14 13 12 12 11 10 10 10 10 9 10 10 10 11 12 13 14 15 15 16 16 16 16 16 16 16 17 16 16
5 8 11 13 15 16 19 20 22 23 23 23 23 23 21 20 19 19 20 21 22 22 22 21 22 23 24 25 26 26 27 26 25 24 24 23 23 22 22 21 21 20 20 19 18 18 17 16 15 14 14 13 13 12 12 12 12 11 11 10 10 9 9 9 9 9 9 10 10 11 12 13 14 14 15 16 16 15 15 15 16 17 17 17 17
2 4 8 11 13 14 16 18 20 22 22 23 23 23 22 20 19 18 18 19 21 21 21 21 21 21 22 23 24 25 26 26 25 24 24 24 23 22 22 21 21 20 20 19 19 18 17 16 16 15 14 14 13 12 11 10 10 9 9 9 9 9 9 9 9 9 10 10 10 11 12 13 14 14 15 15 14 14 15 16 16 17 18 18 19
2 1 4 7 10 12 13 16 18 19 21 21 22 22 22 20 18 17 17 17 19 20 21 21 21 21 21 21 23 23 24 25 25 25 24 23 23 23 22 22 21 20 20 19 19 19 18 17 16 16 15 14 13 12 11 10 10 9 9 9 9 9 9 9 9 10 11 11 11 11 12 13 14 14 14 14 15 15 16 17 17 18 19 20 21
4 3 2 3 5 8 10 12 15 17 18 19 21 21 21 20 18 17 16 16 17 18 20 20 20 20 20 20 21 22 23 23 24 24 24 23 22 22 22 22 21 21 20 20 20 19 18 17 17 16 15 14 13 12 12 11 10 10 10 9 9 9 9 9 9 9 10 11 12 12 13 14 15 15 15 16 16 17 17 18 19 20 21 22 23
5 5 4 3 3 4 6 9 11 14 15 16 18 20 20 19 18 16 16 16 16 16 18 19 20 20 20 20 20 20 21 22 23 23 24 23 22 22 22 22 22 21 21 21 20 20 19 18 17 16 15 15 14 13 12 11 11 10 10 10 10 10 9 9 10 10 10 11 12 13 14 15 16 16 17 17 18 18 19 20 21 22 24 24 25
8 7 6 6 5 4 4 6 8 10 12 14 16 18 19 18 17 16 15 15 15 15 16 17 19 19 19 19 19 19 20 20 21 22 22 23 23 22 22 22 21 21 21 21 20 20 19 19 18 17 16 16 15 14 13 13 12 11 11 12 12 12 11 11 11 11 12 13 14 14 15 16 16 17 18 18 19 20 21 22 23 25 26 27 28
Wind_Direction
135 151 162 163 165 175 186 195 204 212 216 219 223 229 232 231 233 243 253 260 261 261 264 267 271 276 281 283 285 287 290 296 303 313 336 26 45 40 44 52 57 61 69 71 70 67 53 52 68 73 77 86 101 101 92 88 88 96 103 111 113 113 116 113 112 108 104 101 102 103 99 104 178 259 264 276 283 289 295 298 300 304 305 307 311
124 137 149 154 157 165 175 185 195 203 211 212 218 226 228 231 236 245 255 261 262 263 264 266 270 274 277 280 284 288 292 299 322 43 85 87 74 63 62 62 60 60 72 81 83 85 74 66 72 77 80 84 90 85 77 81 91 99 101 102 101 109 115 114 112 106 96 86 81 71 47 10 319 308 305 300 300 301 300 301 303 306 308 312 316
125 136 148 159 166 173 179 187 193 195 200 200 208 218 222 229 237 247 256 259 260 260 261 263 265 265 263 266 276 282 296 65 86 92 94 88 75 69 67 62 57 53 64 79 84 88 83 73 73 77 76 77 75 68 77 90 96 99 100 97 96 106 113 115 114 102 85 66 55 45 21 348 321 317 312 307 304 301 298 301 305 311 316 319 321
131 156 175 185 192 195 194 198 200 197 197 199 209 218 222 230 237 245 250 247 245 248 247 242 233 230 234 238 225 141 109 97 96 90 87 83 75 70 60 55 52 50 59 64 64 71 78 78 76 79 75 68 67 71 87 98 94 93 98 90 87 102 112 118 115 93 66 51 39 28 5 344 334 318 308 306 306 307 307 310 318 324 329 330 336
113 139 176 194 205 209 212 213 210 205 203 208 218 226 233 236 236 237 232 220 213 206 193 181 183 200 213 203 156 125 104 92 96 90 85 84 77 65 50 44 40 44 59 65 60 56 68 76 76 86 82 64 61 79 97 96 90 86 87 81 82 95 115 124 113 65 39 38 27 12 355 342 333 323 318 319 323 332 334 334 340 343 347 354 354
96 102 125 162 190 204 213 215 213 213 215 215 215 216 216 214 209 200 185 170 162 157 154 152 161 204 224 207 162 130 109 92 86 70 58 90 84 58 42 34 35 52 58 59 64 57 63 64 59 71 77 67 58 76 100 95 86 81 77 74 74 87 120 127 95 38 35 29 16 1 350 347 341 340 339 338 346 353 352 351 357 8 13 8 0
90 92 98 110 131 158 174 174 171 168 162 150 143 147 151 152 151 148 145 144 145 146 143 140 175 236 221 192 159 143 129 115 95 53 11 61 78 50 41 27 39 80 57 31 49 55 66 59 47 50 56 59 48 59 88 93 81 71 68 66 64 77 115 110 33 33 34 19 6 353 344 348 352 353 351 352 358 358 1 10 22 27 18 9 7
88 92 95 99 104 113 120 122 117 112 112 116 121 126 129 132 133 136 141 145 149 152 148 147 211 220 196 172 156 154 150 139 110 67 271 12 42 53 54 45 62 95 53 16 39 43 63 58 36 43 36 26 18 25 52 75 73 60 58 59 65 73 80 36 23 33 27 10 355 343 337 341 354 353 356 1 3 8 20 33 34 24 17 14 13
87 90 94 97 99 103 106 106 104 103 108 117 125 129 130 129 131 140 149 158 166 169 166 161 188 192 180 164 156 169 175 147 79 257 213 45 14 42 60 101 96 98 59 10 38 22 52 59 19 15 12 358 352 359 11 52 64 66 65 59 61 46 42 37 29 28 22 8 348 338 335 339 352 356 3 6 13 27 41 39 29 22 20 18 16
84 89 93 97 101 106 109 109 108 110 118 126 129 128 127 128 134 146 160 174 181 185 180 165 188 211 198 171 168 192 254 316 294 272 244 37 330 316 94 114 114 119 134 326 353 0 50 61 14 352 3 9 16 11 355 37 59 62 65 49 35 20 34 33 17 23 22 4 346 337 340 348 356 3 6 12 30 44 40 30 25 24 22 21 20
79 85 92 99 106 113 116 117 117 120 125 128 126 124 124 127 136 152 167 181 188 190 185 172 198 229 234 201 202 206 332 299 289 284 267 45 339 306 136 141 158 159 167 274 316 345 71 34 21 0 353 353 331 313 322 354 6 341 4 17 29 27 15 358 359 13 12 356 346 340 345 356 1 6 10 25 49 44 32 27 25 25 25 26 25
74 78 85 94 103 108 109 108 111 121 130 131 128 130 128 130 140 159 173 180 182 181 183 184 201 222 233 227 230 234 249 267 276 272 235 228 332 331 157 164 156 146 144 211 301 335 118 19 28 15 351 326 286 276 308 334 344 324 306 350 34 55 2 334 355 4 350 348 345 343 349 359 7 11 22 45 53 37 29 27 27 29 29 30 28
70 74 80 86 94 94 92 93 99 109 118 122 124 123 122 130 137 158 174 179 181 179 187 194 202 213 224 232 230 233 245 240 242 251 242 237 297 316 167 167 173 174 192 228 286 296 167 323 19 18 332 305 281 275 300 310 324 319 300 325 28 66 2 328 0 4 340 344 343 344 353 5 14 21 43 52 44 34 30 30 31 32 32 30 28
69 72 76 79 86 87 86 87 90 96 101 106 106 102 99 103 108 136 165 178 184 186 190 190 193 207 229 241 231 227 245 247 248 256 251 224 179 293 186 184 217 222 244 256 267 239 211 247 231 271 312 290 281 285 291 296 308 310 302 298 302 37 346 328 5 352 329 339 341 346 359 12 21 39 57 47 39 33 32 33 34 33 31 28 27
70 71 72 75 82 85 84 85 83 82 87 89 90 88 84 83 84 115 144 162 169 176 184 185 188 203 249 252 246 238 251 272 268 264 245 218 244 252 194 210 247 211 229 254 243 234 221 215 227 259 286 273 275 283 288 293 296 298 295 278 283 316 312 331 2 336 330 339 341 349 6 21 33 56 52 40 38 33 35 34 33 32 29 28 26
69 72 72 72 78 82 80 80 79 74 76 77 79 82 81 85 90 112 127 141 153 178 201 200 198 204 245 249 246 244 241 248 252 247 245 255 254 234 204 223 242 219 218 214 205 223 230 273 275 274 273 270 275 282 296 301 293 286 283 269 266 281 304 327 341 323 332 339 342 356 16 33 51 56 41 39 38 35 37 33 32 30 28 27 23
69 72 72 70 73 77 76 76 78 73 73 74 76 83 88 95 99 108 111 123 151 221 242 239 229 232 252 250 244 243 233 231 237 234 241 254 245 221 208 224 239 224 219 210 209 230 255 275 285 281 266 263 279 289 297 301 295 284 270 261 258 269 293 323 338 322 336 340 344 5 25 47 58 46 38 39 39 39 37 32 31 28 27 23 19
69 70 70 69 68 72 73 75 79 76 76 79 76 82 89 93 99 102 107 115 121 210 263 265 267 267 260 247 239 230 224 230 234 228 234 243 242 232 220 234 230 207 216 223 228 245 256 267 272 268 250 248 281 290 270 284 311 297 255 250 255 269 285 326 339 324 339 344 350 17 39 59 54 40 41 40 41 40 36 32 30 27 24 20 16
68 69 69 68 66 68 70 73 78 80 83 86 82 83 87 88 90 92 98 104 105 129 269 273 283 285 268 252 244 233 226 227 226 220 238 243 246 255 237 249 231 204 223 248 262 258 244 261 274 260 238 240 276 275 241 300 322 311 244 237 239 258 293 342 311 317 340 348 4 34 56 62 49 41 42 42 43 39 35 32 28 26 21 17 15
67 67 68 67 66 66 67 69 73 78 83 85 85 84 82 79 75 74 78 89 100 134 270 285 321 299 280 266 251 242 233 229 227 215 227 237 238 241 209 224 234 223 243 263 273 259 227 241 284 270 227 222 251 262 284 309 319 312 242 232 232 245 120 293 283 325 344 357 25 52 69 61 47 45 43 44 43 37 34 31 27 23 18 16 15
67 67 67 67 66 66 67 68 70 73 77 78 80 80 76 72 69 66 67 75 85 92 287 288 293 271 274 273 264 255 243 235 235 216 214 223 229 228 204 199 210 227 251 264 264 256 237 232 234 259 237 221 247 271 292 300 300 329 271 232 224 218 171 220 260 342 356 19 45 69 73 57 48 46 44 46 43 37 33 30 25 20 17 17 15
67 67 66 66 65 66 67 69 70 71 73 73 74 76 74 70 67 61 57 58 55 51 0 300 253 235 254 265 267 262 251 243 241 225 211 211 220 229 222 217 217 231 253 254 242 246 252 240 233 249 242 232 256 271 279 290 290 62 1 234 197 202 201 214 231 15 26 46 63 78 68 54 51 49 48 48 43 37 33 28 22 18 18 18 17
67 68 66 65 64 64 66 68 70 70 70 69 69 71 69 65 62 55 47 42 39 36 25 6 353 212 226 247 255 256 253 247 244 228 210 209 217 230 232 225 224 235 250 251 240 243 250 247 243 242 228 229 255 265 271 295 311 99 356 226 189 209 207 204 122 56 60 69 79 79 62 54 52 52 54 50 42 37 32 26 19 17 20 21 20
65 67 67 65 63 62 63 66 68 68 68 66 65 64 63 60 56 49 42 39 39 40 38 34 37 73 112 156 235 247 253 253 246 218 201 206 211 221 227 221 222 232 239 243 246 244 239 233 227 217 210 226 233 247 279 301 237 191 306 272 234 217 199 173 96 84 86 91 91 76 58 55 54 56 58 51 42 37 31 23 18 19 23 24 23
62 65 67 66 64 62 61 64 66 67 67 65 63 61 60 57 52 45 42 42 45 47 47 48 52 70 98 107 87 64 350 272 243 201 198 207 211 214 217 213 212 220 224 230 237 229 219 213 204 198 203 215 225 253 288 285 225 222 262 265 217 200 180 125 107 105 103 103 92 74 59 56 56 59 59 50 43 36 29 21 19 23 26 26 24
60 61 64 66 64 62 61 61 63 65 66 64 63 61 59 55 50 46 44 46 50 54 54 56 60 66 82 96 95 93 108 282 270 211 208 216 225 222 210 202 198 200 209 214 211 202 200 203 205 209 214 223 239 269 288 265 230 227 242 236 196 178 144 119 115 112 110 103 88 72 61 59 62 63 57 48 42 34 26 20 22 26 28 27 26
59 59 61 63 64 63 61 60 61 62 64 64 63 61 59 55 51 47 47 50 54 58 59 60 62 65 71 82 95 110 125 143 207 220 208 209 223 218 195 189 189 192 198 197 193 194 201 209 216 225 233 242 253 271 275 248 227 225 235 212 184 159 130 124 119 114 108 95 82 71 62 62 65 64 54 44 39 32 25 22 27 29 29 28 26
59 59 58 59 61 62 61 60 59 60 61 63 63 61 59 55 51 48 48 52 56 59 60 61 62 64 67 72 82 94 111 128 160 189 198 205 210 201 189 184 189 195 195 195 206 214 223 229 231 237 241 245 254 263 256 229 220 227 222 196 172 147 130 124 119 113 98 86 79 68 62 64 67 63 52 42 36 30 25 27 31 31 30 28 26
60 59 58 57 57 59 60 60 59 58 58 60 62 62 60 57 52 48 47 50 54 57 59 61 62 64 66 68 73 78 89 103 118 133 140 145 146 152 162 171 183 193 198 203 213 220 225 227 225 227 233 241 249 249 233 219 222 218 198 172 151 133 124 118 114 102 89 83 75 66 62 64 66 59 49 40 34 30 27 30 32 31 30 28 25
59 60 58 56 55 56 57 58 58 57 57 57 59 61 61 59 55 50 48 49 51 55 57 60 62 63 65 66 67 70 74 80 87 94 100 107 112 116 126 139 155 168 178 187 194 199 203 206 212 222 233 239 236 225 216 215 212 192 165 145 129 120 116 112 102 90 83 78 70 63 63 65 62 52 44 38 34 32 31 32 32 31 30 26 24
57 58 59 58 55 54 54 56 56 56 56 55 56 58 60 60 57 54 51 50 51 52 55 58 61 62 63 64 64 63 64 68 72 77 82 90 97 101 107 114 123 134 144 156 169 180 190 200 209 217 218 211 199 194 197 194 175 152 133 123 114 109 106 98 88 82 78 71 65 63 64 62 54 47 42 36 35 35 32 32 31 31 28 25 24
55 56 58 58 57 54 53 53 55 55 54 54 54 55 58 59 58 56 55 54 53 53 54 56 59 61 62 63 64 63 62 64 66 69 73 80 89 97 101 104 109 115 124 138 154 167 177 184 187 184 176 171 167 163 159 148 132 120 111 106 102 98 94 88 84 81 73 66 65 65 63 56 49 42 39 36 36 36 33 30 29 29 26 24 23
53 54 56 57 57 56 54 53 53 53 54 54 54 54 56 57 57 56 56 57 56 54 54 55 56 59 61 62 64 64 64 64 65 68 72 78 86 95 100 103 106 111 117 126 136 145 149 152 152 152 150 147 139 132 126 119 113 109 105 101 96 94 91 88 86 78 69 65 67 66 58 50 44 40 38 37 36 35 33 30 28 27 25 23 23
51 52 54 55 57 56 56 54 53 52 52 54 54 54 55 56 56 55 55 57 57 56 55 54 55 57 59 62 64 65 65 66 67 69 72 76 82 88 93 96 97 100 102 106 110 114 117 121 126 129 129 126 120 116 114 112 111 109 105 103 101 100 98 93 86 75 69 68 68 62 51 44 42 39 37 36 34 34 33 30 29 27 25 23 23
51 51 52 53 55 56 56 56 54 53 52 53 54 54 54 55 55 55 55 55 57 58 57 55 55 56 57 60 63 65 66 68 69 70 72 75 78 82 86 88 89 89 88 88 91 95 100 104 107 112 113 113 112 112 112 111 110 106 102 101 103 103 101 94 84 75 72 71 64 53 47 43 41 38 36 33 32 33 31 30 30 27 25 23 22
50 51 51 51 53 54 56 56 56 55 53 53 53 54 54 55 55 55 56 55 56 58 58 57 56 56 57 58 60 63 65 68 70 71 73 75 78 80 82 85 86 86 85 84 85 89 93 96 99 102 104 106 107 108 109 108 103 100 98 99 100 99 95 87 78 74 71 65 56 50 49 45 41 37 33 31 31 32 31 30 29 27 24 21 22
50 50 51 51 51 52 54 56 56 56 55 54 53 53 53 55 55 56 56 56 56 57 59 59 59 58 58 58 59 61 63 66 68 71 74 76 78 80 81 83 85 86 87 88 89 91 92 95 97 99 101 102 103 105 104 102 100 98 99 99 97 93 87 80 76 74 66 58 54 53 52 48 43 38 34 32 32 31 29 28 27 25 23 20 24
50 50 51 51 50 50 51 54 55 55 55 56 55 53 53 54 55 55 57 57 57 57 58 60 60 60 59 60 60 61 62 64 66 69 73 76 78 81 82 83 84 85 87 88 90 92 94 95 96 97 98 99 99 100 99 98 99 99 100 97 92 89 84 81 78 70 61 57 57 57 55 51 45 40 35 32 31 29 27 28 28 25 22 22 27
49 51 51 51 51 50 50 51 53 54 54 56 56 55 54 54 55 55 56 57 58 58 58 59 60 60 60 60 61 61 62 63 65 67 70 74 77 81 83 85 86 87 87 88 88 90 91 92 93 93 93 93 93 93 94 95 97 96 95 92 89 87 85 83 77 69 64 62 60 58 56 52 48 42 36 32 30 29 29 30 29 25 24 27 31
49 51 51 50 50 50 50 50 51 53 53 54 56 56 54 54 54 56 56 57 59 59 59 60 60 61 61 61 61 61 62 63 65 67 68 71 74 78 82 84 86 87 88 88 89 89 89 90 90 90 90 90 90 89 90 91 91 91 90 90 89 88 86 82 76 71 70 67 63 60 58 55 51 44 38 34 31 30 34 33 29 26 28 31 32
47 50 53 50 49 49 49 50 51 52 52 53 55 56 55 54 54 55 56 57 58 59 60 61 61 61 61 62 62 62 63 63 65 67 69 70 72 75 78 81 83 85 86 87 89 90 91 92 91 91 90 90 90 90 89 89 89 89 89 89 90 89 86 82 78 77 75 71 67 62 59 56 51 46 41 38 34 34 36 33 30 30 32 33 31
46 48 52 51 48 47 48 50 52 52 53 53 55 56 56 55 54 54 55 57 58 59 60 61 61 61 61 62 63 64 64 64 65 66 67 69 70 72 74 76 79 81 83 84 86 89 90 91 92 92 91 91 91 90 90 89 89 89 88 88 87 86 83 80 77 75 73 70 66 61 56 54 52 49 46 43 40 38 38 34 30 32 34 32 29
46 45 49 49 46 45 45 48 50 51 53 54 56 56 56 56 55 54 54 55 57 58 59 60 61 61 62 62 63 64 65 65 66 66 67 68 68 70 71 72 73 75 77 79 81 83 85 86 88 92 93 93 92 91 90 89 89 90 90 90 87 84 82 79 76 73 69 64 59 54 50 49 50 49 48 47 43 39 39 34 29 32 33 29 26
45 43 44 45 43 43 43 45 48 50 51 54 56 58 57 56 55 55 55 54 56 58 59 60 61 62 62 62 63 64 65 66 67 67 68 69 68 68 69 70 70 70 70 71 73 75 77 79 81 85 90 93 93 92 93 91 91 91 91 92 91 89 87 83 80 75 71 64 57 51 46 47 47 48 50 48 44 40 39 35 30 30 31 28 26
44 43 43 43 42 42 42 43 45 47 49 51 53 57 59 58 56 56 56 56 55 56 59 60 61 62 62 62 63 64 65 66 67 68 68 69 69 68 68 68 68 68 67 67 67 68 70 72 75 77 81 85 89 93 95 95 95 95 95 96 95 93 90 86 82 76 71 66 60 54 50 50 50 50 51 49 44 41 39 36 34 32 31 31 31
38 42 43 44 44 43 42 42 43 45 47 48 49 52 57 59 58 58 58 58 57 56 57 59 61 63 63 63 63 63 65 66 68 69 70 69 69 69 68 68 67 67 67 66 65 65 65 66 69 72 75 77 80 85 90 93 94 96 96 95 92 87 80 77 73 69 65 62 58 57 55 56 57 53 53 51 47 44 42 40 39 37 36 37 38
4 36 43 45 46 46 44 43 43 45 46 47 47 48 52 56 57 58 59 59 60 58 57 57 59 63 65 64 64 63 64 65 67 69 71 71 71 70 69 69 68 67 67 67 66 65 64 64 63 65 68 70 71 73 76 80 81 84 84 82 78 72 66 63 59 59 59 55 52 53 56 59 61 60 57 55 52 49 47 45 44 44 42 42 44
274 324 32 39 43 48 46 42 42 45 46 47 48 46 48 53 56 57 59 60 61 61 59 58 58 60 64 65 66 65 64 64 65 67 70 72 73 73 72 71 70 69 68 68 67 67 66 65 64 63 63 64 65 66 66 67 67 68 69 69 67 63 59 56 54 55 55 52 48 49 56 62 66 65 64 62 59 56 53 50 49 49 49 48 48
238 259 297 8 32 42 45 39 38 43 45 45 47 46 45 48 53 56 57 59 60 63 63 61 59 59 61 64 67 68 66 64 64 65 67 70 73 74 75 74 73 72 71 69 68 69 68 68 67 67 66 67 67 67 67 66 66 65 63 62 60 59 57 56 54 52 52 51 48 48 57 65 68 68 67 65 63 59 57 55 54 55 56 55 55
220 237 259 281 323 13 31 31 30 36 41 43 46 47 44 44 48 53 55 57 59 62 65 64 62 61 60 62 65 69 70 67 65 64 65 67 71 73 74 75 74 74 73 72 70 70 71 71 70 69 70 71 71 71 70 69 67 65 63 61 61 61 62 63 60 57 56 56 55 55 61 66 69 69 68 67 65 63 61 60 60 63 64 65 66
219 223 242 260 273 300 351 17 22 29 36 40 44 48 46 42 44 47 50 53 57 60 64 66 65 63 61 61 62 66 69 71 68 66 65 65 67 70 72 73 74 74 74 74 74 73 72 72 71 71 71 71 71 71 70 70 68 64 63 63 64 65 66 66 66 65 64 65 66 66 68 70 71 71 71 71 70 69 68 68 69 72 73 74 74
Height
10968 10968 10969 10970 10971 10971 10971 10971 10971 10971 10972 10973 10973 10973 10975 10976 10977 10978 10977 10977 10976 10975 10974 10973 10972 10971 10971 10971 10972 10972 10972 10972 10972 10971 10971 10970 10969 10968 10966 10965 10963 10961 10960 10958 10958 10958 10959 10959 10959 10959 10959 10959 10960 10960 10960 10959 10959 10958 10958 10958 10957 10957 10957 10957 10957 10957 10958 10958 10958 10958 10957 10957 10956 10955 10955 10954 10953 10952 10951 10950 10949 10948 10947 10947 10946
10969 10969 10969 10970 10971 10971 10971 10971 10971 10971 10971 10972 10973 10973 10975 10976 10977 10977 10976 10975 10974 10974 10973 10972 10971 10970 10971 10971 10972 10972 10972 10972 10972 10972 10971 10970 10969 10968 10967 10965 10964 10963 10962 10960 10959 10958 10959 10960 10960 10960 10960 10960 10960 10960 10960 10960 10959 10959 10958 10958 10958 10958 10958 10958 10958 10958 10958 10958 10958 10958 10957 10957 10956 10955 10954 10953 10953 10952 10951 10950 10949 10948 10947 10947 10946
10970 10970 10970 10970 10970 10971 10971 10971 10971 10970 10971 10972 10973 10974 10974 10975 10976 10976 10975 10974 10973 10973 10972 10972 10971 10970 10971 10972 10973 10973 10972 10972 10972 10972 10971 10970 10969 10968 10967 10966 10965 10965 10964 10963 10961 10959 10959 10960 10961 10961 10962 10962 10961 10961 10960 10960 10960 10960 10959 10959 10959 10959 10958 10959 10959 10959 10959 10958 10958 10958 10957 10956 10955 10954 10954 10953 10952 10951 10950 10949 10949 10948 10947 10947 10946
10971 10971 10970 10970 10970 10970 10970 10970 10970 10970 10971 10972 10973 10973 10974 10974 10974 10974 10974 10973 10973 10972 10972 10971 10971 10971 10971 10972 10973 10973 10972 10972 10972 10972 10971 10971 10970 10969 10969 10968 10967 10967 10966 10965 10964 10962 10961 10961 10962 10962 10963 10962 10962 10961 10961 10961 10961 10961 10961 10960 10960 10959 10959 10959 10959 10959 10959 10959 10958 10958 10957 10955 10954 10954 10953 10953 10952 10951 10950 10949 10949 10948 10947 10946 10946
10973 10972 10971 10970 10970 10969 10969 10969 10970 10970 10971 10972 10972 10973 10973 10973 10973 10973 10972 10972 10972 10972 10972 10972 10971 10971 10971 10972 10973 10973 10973 10973 10972 10972 10971 10971 10970 10970 10970 10970 10969 10968 10967 10966 10965 10964 10963 10962 10963 10963 10963 10963 10963 10963 10963 10963 10962 10962 10961 10961 10961 10960 10960 10960 10960 10960 10959 10959 10958 10957 10956 10955 10954 10953 10953 10953 10952 10951 10950 10949 10949 10948 10947 10947 10946
10974 10973 10972 10971 10970 10969 10969 10969 10969 10970 10971 10971 10972 10973 10973 10972 10971 10971 10971 10971 10972 10972 10972 10972 10972 10971 10971 10972 10974 10974 10974 10973 10973 10973 10972 10971 10971 10970 10971 10970 10969 10969 10968 10966 10964 10964 10964 10964 10964 10964 10964 10964 10965 10965 10965 10964 10964 10963 10963 10962 10962 10962 10961 10961 10961 10960 10960 10959 10958 10957 10956 10955 10954 10953 10953 10952 10951 10951 10950 10950 10949 10948 10948 10947 10946
10975 10974 10973 10972 10970 10969 10969 10969 10969 10970 10971 10972 10972 10972 10972 10971 10970 10970 10971 10972 10972 10973 10973 10973 10972 10971 10971 10972 10974 10974 10974 10974 10974 10973 10972 10972 10971 10970 10970 10970 10969 10968 10967 10966 10964 10964 10965 10965 10965 10965 10965 10965 10966 10967 10966 10966 10965 10965 10964 10964 10963 10963 10963 10962 10962 10961 10960 10960 10959 10957 10956 10955 10954 10954 10953 10952 10952 10951 10951 10950 10949 10949 10948 10947 10946
10976 10975 10974 10973 10972 10970 10970 10970 10970 10971 10972 10972 10972 10972 10971 10971 10971 10972 10972 10972 10973 10973 10973 10973 10972 10971 10971 10972 10974 10974 10974 10974 10974 10974 10973 10973 10971 10971 10970 10970 10969 10968 10967 10966 10966 10965 10966 10966 10966 10966 10967 10967 10967 10968 10968 10967 10966 10966 10965 10965 10964 10964 10963 10963 10962 10961 10961 10960 10959 10958 10956 10955 10955 10954 10953 10953 10952 10951 10951 10950 10950 10949 10948 10946 10945
10977 10976 10976 10975 10973 10972 10971 10972 10972 10973 10973 10973 10973 10973 10972 10972 10973 10973 10973 10973 10973 10973 10974 10974 10972 10970 10970 10972 10974 10974 10973 10974 10974 10974 10974 10973 10972 10971 10970 10970 10970 10969 10968 10968 10967 10966 10966 10966 10966 10967 10967 10967 10968 10968 10968 10968 10967 10967 10966 10966 10965 10965 10964 10963 10962 10962 10961 10960 10959 10958 10957 10956 10955 10954 10953 10953 10952 10952 10951 10950 10950 10949 10948 10946 10945
10978 10978 10977 10976 10975 10974 10974 10974 10974 10974 10974 10974 10974 10973 10973 10973 10974 10974 10974 10973 10973 10974 10975 10974 10972 10969 10969 10972 10974 10974 10973 10973 10973 10973 10974 10974 10973 10971 10970 10969 10970 10971 10969 10968 10967 10966 10966 10966 10966 10967 10968 10968 10969 10968 10968 10968 10968 10967 10967 10966 10966 10965 10964 10963 10963 10962 10961 10961 10960 10958 10957 10956 10955 10955 10954 10953 10953 10952 10951 10951 10950 10949 10947 10946 10945
10979 10979 10978 10977 10976 10975 10975 10976 10976 10976 10975 10975 10974 10973 10973 10974 10974 10974 10974 10974 10974 10974 10975 10975 10971 10968 10968 10972 10974 10973 10972 10972 10973 10973 10973 10974 10973 10971 10969 10968 10969 10970 10969 10968 10967 10967 10966 10965 10966 10967 10969 10970 10970 10969 10969 10969 10969 10968 10967 10967 10966 10965 10965 10964 10963 10962 10961 10961 10960 10959 10958 10957 10956 10955 10955 10954 10953 10953 10952 10951 10950 10949 10948 10947 10945
10981 10980 10979 10978 10977 10976 10977 10978 10978 10977 10976 10975 10975 10974 10974 10974 10975 10975 10974 10974 10974 10974 10975 10974 10971 10969 10969 10972 10973 10972 10972 10973 10973 10972 10973 10974 10973 10972 10969 10968 10968 10968 10969 10969 10968 10968 10966 10965 10967 10968 10969 10970 10970 10970 10969 10969 10969 10968 10968 10967 10966 10966 10966 10965 10964 10963 10962 10961 10960 10959 10958 10957 10957 10956 10955 10954 10954 10953 10953 10952 10951 10949 10948 10947 10945
10982 10981 10980 10979 10978 10978 10979 10979 10979 10977 10976 10976 10975 10975 10975 10975 10975 10975 10974 10974 10974 10974 10975 10974 10972 10970 10970 10971 10972 10971 10971 10973 10973 10971 10972 10974 10974 10973 10970 10967 10967 10968 10969 10969 10969 10968 10967 10966 10968 10969 10970 10970 10969 10969 10969 10969 10969 10968 10967 10967 10966 10966 10966 10965 10964 10963 10962 10962 10961 10960 10959 10958 10957 10957 10956 10955 10955 10954 10953 10952 10951 10950 10949 10947 10946
10985 10983 10982 10980 10979 10979 10980 10980 10979 10978 10976 10976 10976 10976 10976 10976 10976 10975 10974 10974 10974 10974 10974 10974 10973 10972 10971 10970 10971 10971 10971 10972 10972 10971 10971 10973 10973 10972 10970 10968 10967 10968 10969 10970 10970 10969 10968 10968 10969 10970 10970 10970 10969 10969 10969 10969 10968 10968 10967 10967 10966 10966 10966 10966 10965 10964 10963 10962 10961 10960 10960 10959 10958 10957 10957 10957 10956 10955 10954 10953 10952 10950 10949 10948 10946
10986 10985 10983 10981 10980 10981 10982 10981 10980 10978 10977 10976 10976 10976 10977 10978 10977 10976 10975 10975 10974 10974 10974 10974 10974 10974 10972 10969 10969 10970 10971 10972 10972 10970 10970 10972 10972 10972 10970 10969 10969 10969 10970 10971 10970 10970 10970 10970 10970 10970 10970 10970 10969 10969 10969 10968 10968 10967 10967 10966 10966 10966 10966 10966 10965 10964 10963 10963 10962 10961 10961 10960 10959 10958 10958 10958 10957 10956 10955 10954 10952 10951 10950 10948 10947
10987 10986 10984 10982 10981 10982 10983 10982 10981 10980 10979 10978 10978 10978 10979 10980 10979 10978 10977 10976 10975 10974 10973 10973 10975 10976 10973 10969 10968 10969 10971 10972 10971 10969 10969 10970 10971 10971 10971 10970 10970 10970 10971 10971 10971 10971 10971 10971 10971 10971 10970 10970 10969 10968 10968 10968 10967 10967 10966 10966 10966 10967 10967 10966 10966 10965 10964 10963 10963 10962 10961 10960 10960 10959 10959 10958 10957 10956 10955 10954 10953 10952 10950 10949 10947
10988 10987 10985 10983 10982 10982 10983 10984 10983 10982 10980 10980 10979 10979 10980 10981 10980 10979 10978 10978 10977 10975 10971 10971 10973 10975 10972 10967 10967 10969 10970 10970 10969 10968 10968 10969 10969 10970 10970 10970 10971 10970 10971 10971 10971 10971 10971 10971 10971 10971 10970 10969 10969 10968 10968 10967 10967 10967 10966 10966 10967 10967 10967 10967 10966 10965 10965 10964 10964 10963 10962 10961 10961 10960 10960 10959 10958 10957 10956 10955 10954 10952 10951 10950 10948
10990 10988 10986 10984 10983 10982 10983 10984 10984 10984 10982 10982 10982 10981 10981 10981 10981 10980 10980 10980 10979 10975 10970 10969 10971 10971 10968 10965 10966 10968 10969 10969 10967 10966 10967 10968 10968 10969 10969 10970 10971 10970 10970 10970 10970 10971 10971 10972 10971 10971 10971 10970 10968 10968 10967 10967 10967 10966 10966 10966 10967 10967 10967 10967 10967 10966 10965 10965 10964 10963 10962 10962 10961 10961 10961 10960 10959 10958 10957 10956 10954 10953 10952 10951 10949
10991 10990 10988 10986 10985 10984 10984 10985 10985 10985 10985 10985 10985 10983 10982 10982 10981 10981 10981 10981 10980 10975 10970 10969 10970 10968 10963 10962 10963 10966 10967 10967 10965 10965 10966 10966 10967 10968 10969 10970 10970 10970 10969 10969 10970 10971 10971 10971 10971 10970 10970 10970 10969 10968 10966 10967 10967 10966 10966 10966 10967 10967 10967 10967 10967 10966 10966 10965 10965 10964 10963 10962 10962 10962 10961 10960 10960 10959 10958 10957 10955 10954 10953 10951 10950
10993 10992 10990 10988 10987 10986 10986 10986 10986 10986 10986 10986 10986 10984 10983 10982 10981 10981 10981 10981 10980 10975 10970 10970 10971 10966 10959 10957 10959 10962 10964 10964 10963 10964 10965 10966 10966 10967 10968 10969 10969 10969 10968 10969 10969 10970 10971 10970 10970 10970 10970 10969 10969 10968 10967 10967 10967 10967 10966 10967 10967 10967 10968 10968 10967 10967 10966 10966 10965 10964 10963 10963 10963 10963 10962 10961 10961 10960 10959 10957 10956 10955 10954 10952 10950
10995 10994 10992 10991 10990 10989 10988 10988 10987 10987 10986 10985 10985 10984 10984 10982 10981 10981 10981 10981 10980 10976 10971 10970 10973 10967 10957 10952 10953 10957 10959 10961 10962 10964 10964 10965 10966 10967 10968 10968 10968 10967 10967 10968 10968 10969 10970 10970 10970 10970 10969 10969 10969 10968 10968 10968 10967 10967 10966 10967 10967 10968 10968 10968 10968 10967 10967 10966 10965 10965 10964 10964 10964 10963 10963 10962 10962 10960 10959 10958 10957 10956 10954 10952 10951
10997 10996 10995 10993 10992 10991 10991 10990 10988 10987 10986 10985 10985 10984 10984 10983 10982 10981 10980 10979 10978 10976 10972 10970 10972 10968 10960 10952 10950 10952 10955 10958 10961 10963 10964 10964 10965 10965 10966 10968 10968 10967 10967 10968 10968 10968 10970 10970 10970 10970 10970 10969 10969 10969 10969 10968 10967 10967 10967 10967 10968 10968 10968 10968 10968 10968 10967 10967 10966 10966 10965 10965 10964 10964 10964 10963 10962 10961 10960 10959 10958 10956 10955 10953 10951
10999 10998 10997 10995 10994 10993 10992 10991 10990 10988 10987 10986 10985 10984 10984 10983 10982 10981 10979 10977 10975 10974 10971 10968 10967 10966 10963 10957 10951 10950 10952 10955 10958 10960 10962 10963 10963 10964 10965 10967 10967 10966 10966 10967 10968 10968 10969 10969 10969 10969 10969 10968 10969 10969 10969 10968 10968 10967 10968 10968 10968 10969 10969 10969 10969 10968 10968 10967 10967 10967 10966 10966 10965 10965 10964 10964 10963 10962 10961 10960 10958 10957 10955 10954 10952
11001 10999 10998 10997 10996 10995 10994 10993 10991 10990 10988 10987 10986 10985 10984 10983 10982 10980 10977 10975 10973 10971 10969 10965 10962 10962 10964 10961 10956 10953 10952 10953 10956 10958 10960 10962 10963 10964 10965 10966 10966 10965 10965 10966 10966 10967 10967 10968 10969 10969 10968 10969 10970 10970 10969 10968 10968 10968 10969 10969 10969 10969 10969 10969 10969 10969 10968 10968 10968 10967 10967 10966 10966 10966 10965 10964 10963 10962 10961 10960 10959 10958 10956 10955 10953
11003 11001 11000 10998 10997 10996 10995 10994 10993 10992 10990 10989 10987 10986 10985 10983 10981 10979 10977 10974 10972 10970 10968 10964 10961 10960 10962 10962 10960 10957 10953 10951 10953 10956 10958 10960 10961 10962 10964 10965 10965 10965 10965 10965 10965 10965 10967 10968 10969 10969 10970 10970 10970 10970 10969 10969 10969 10969 10969 10969 10969 10970 10970 10970 10970 10969 10969 10969 10968 10968 10968 10967 10967 10966 10966 10965 10964 10963 10962 10961 10960 10958 10957 10956 10954
11005 11003 11002 11000 10999 10998 10997 10996 10995 10994 10992 10990 10989 10987 10986 10984 10982 10980 10977 10975 10973 10971 10969 10965 10962 10960 10961 10963 10965 10962 10957 10953 10951 10953 10956 10958 10959 10960 10962 10963 10965 10965 10965 10964 10964 10965 10966 10968 10968 10969 10970 10970 10969 10969 10969 10969 10969 10970 10970 10970 10970 10970 10971 10971 10971 10970 10970 10969 10969 10969 10968 10968 10968 10967 10966 10965 10964 10964 10963 10962 10960 10959 10958 10956 10955
11007 11005 11004 11002 11001 10999 10999 10998 10997 10996 10994 10992 10991 10989 10987 10985 10983 10981 10979 10977 10975 10973 10971 10968 10964 10962 10962 10964 10966 10967 10965 10960 10955 10954 10956 10957 10957 10958 10959 10961 10962 10963 10963 10963 10962 10962 10964 10966 10967 10967 10968 10968 10968 10968 10968 10969 10969 10970 10970 10970 10971 10971 10972 10972 10972 10971 10971 10970 10970 10969 10969 10969 10968 10968 10967 10966 10965 10964 10964 10962 10961 10960 10959 10957 10956
11009 11007 11006 11004 11002 11001 11000 11000 10999 10998 10997 10995 10993 10991 10989 10987 10985 10983 10981 10979 10977 10975 10973 10971 10968 10965 10964 10965 10966 10966 10967 10966 10962 10959 10959 10958 10958 10958 10959 10959 10960 10960 10961 10960 10959 10960 10961 10963 10964 10965 10966 10967 10967 10968 10969 10969 10970 10970 10971 10971 10972 10972 10973 10973 10972 10972 10972 10971 10971 10970 10970 10969 10969 10968 10968 10967 10966 10965 10964 10963 10962 10961 10959 10958 10956
11012 11010 11008 11006 11004 11003 11002 11001 11000 10999 10998 10997 10995 10993 10991 10989 10987 10984 10982 10980 10978 10977 10975 10973 10971 10968 10967 10966 10966 10966 10967 10967 10965 10963 10961 10960 10959 10959 10959 10960 10960 10960 10961 10961 10961 10961 10962 10963 10964 10965 10966 10967 10968 10969 10969 10970 10970 10971 10972 10973 10973 10974 10974 10974 10974 10973 10972 10972 10972 10971 10971 10970 10970 10969 10969 10968 10967 10966 10965 10964 10963 10961 10960 10959 10957
11014 11012 11010 11009 11007 11005 11004 11002 11001 11000 11000 10999 10997 10995 10993 10992 10990 10987 10984 10982 10980 10978 10977 10975 10973 10971 10970 10968 10967 10967 10967 10967 10966 10965 10963 10962 10961 10961 10961 10961 10962 10962 10962 10963 10963 10963 10964 10965 10966 10967 10967 10968 10969 10969 10970 10971 10972 10973 10973 10974 10975 10975 10975 10975 10975 10974 10974 10973 10973 10972 10972 10971 10971 10970 10969 10969 10968 10967 10966 10965 10963 10962 10961 10959 10958
11016 11014 11013 11011 11009 11008 11006 11004 11002 11001 11001 11000 10998 10997 10995 10994 10993 10991 10987 10984 10982 10980 10979 10977 10976 10974 10972 10971 10969 10968 10968 10967 10966 10965 10964 10963 10962 10962 10962 10962 10962 10963 10963 10964 10964 10965 10965 10966 10967 10968 10968 10969 10970 10971 10972 10973 10974 10975 10976 10976 10976 10977 10977 10976 10976 10975 10975 10974 10974 10973 10972 10972 10971 10971 10970 10969 10968 10967 10966 10965 10964 10963 10962 10960 10958
11018 11017 11015 11013 11012 11010 11009 11006 11004 11003 11002 11001 11000 10998 10997 10996 10995 10993 10991 10988 10985 10983 10981 10979 10978 10976 10975 10974 10972 10971 10970 10968 10967 10966 10965 10964 10963 10963 10963 10963 10963 10964 10964 10965 10965 10966 10967 10967 10968 10969 10969 10970 10971 10973 10974 10975 10976 10977 10978 10978 10978 10978 10978 10977 10977 10976 10976 10975 10975 10974 10974 10973 10972 10972 10971 10970 10969 10968 10967 10966 10965 10963 10962 10961 10959
11020 11019 11017 11016 11014 11013 11011 11009 11007 11005 11004 11002 11001 11000 10998 10997 10996 10995 10993 10991 10988 10986 10984 10982 10981 10979 10978 10977 10976 10974 10973 10972 10970 10968 10967 10966 10966 10965 10965 10965 10965 10966 10966 10967 10967 10968 10968 10969 10970 10970 10971 10972 10974 10975 10976 10977 10978 10979 10979 10979 10979 10979 10979 10978 10978 10977 10977 10976 10976 10975 10975 10974 10973 10973 10972 10971 10970 10969 10968 10967 10965 10964 10963 10961 10959
11022 11020 11019 11018 11016 11015 11014 11012 11010 11008 11007 11005 11003 11002 11000 10999 10998 10996 10994 10993 10991 10989 10987 10985 10984 10982 10980 10979 10978 10977 10976 10975 10973 10972 10970 10969 10969 10968 10968 10968 10968 10968 10968 10969 10969 10970 10970 10971 10972 10973 10974 10975 10976 10977 10978 10979 10980 10980 10980 10980 10980 10979 10979 10979 10979 10978 10978 10977 10977 10976 10976 10975 10974 10974 10973 10972 10971 10970 10968 10967 10966 10965 10963 10962 10960
11024 11022 11021 11020 11018 11017 11016 11014 11013 11011 11010 11008 11006 11005 11003 11001 11000 10998 10996 10995 10993 10991 10990 10988 10987 10985 10983 10982 10981 10980 10979 10978 10976 10975 10973 10972 10971 10970 10970 10970 10970 10970 10971 10971 10972 10972 10973 10973 10974 10975 10976 10977 10978 10979 10980 10980 10981 10981 10981 10981 10980 10980 10980 10980 10979 10979 10979 10978 10978 10977 10977 10976 10975 10975 10974 10973 10972 10970 10969 10968 10967 10965 10964 10962 10960
11025 11024 11023 11021 11020 11019 11018 11017 11015 11014 11012 11011 11009 11008 11006 11004 11003 11000 10999 10997 10995 10994 10993 10991 10990 10988 10987 10985 10984 10982 10981 10980 10979 10978 10976 10975 10974 10974 10973 10973 10973 10973 10973 10974 10974 10975 10975 10976 10977 10978 10979 10980 10980 10981 10981 10982 10982 10982 10982 10982 10982 10981 10981 10981 10980 10980 10980 10979 10979 10978 10977 10977 10976 10976 10975 10974 10973 10971 10970 10969 10967 10966 10964 10963 10961
11026 11026 11024 11023 11022 11021 11020 11019 11017 11016 11015 11013 11011 11010 11009 11007 11006 11004 11002 11000 10998 10997 10996 10994 10993 10992 10990 10989 10987 10986 10984 10983 10982 10981 10980 10979 10978 10977 10977 10977 10976 10977 10977 10977 10977 10978 10978 10979 10980 10981 10981 10982 10982 10982 10983 10983 10983 10983 10983 10983 10983 10983 10982 10982 10982 10982 10981 10981 10980 10979 10979 10978 10978 10977 10976 10975 10973 10972 10971 10969 10968 10967 10965 10963 10962
11027 11027 11026 11025 11024 11023 11022 11021 11019 11018 11017 11015 11014 11012 11011 11010 11009 11007 11005 11003 11002 11000 10999 10997 10996 10995 10993 10992 10991 10989 10988 10986 10985 10984 10983 10982 10981 10981 10980 10980 10980 10980 10980 10980 10980 10981 10981 10982 10982 10983 10983 10984 10984 10984 10984 10984 10984 10984 10984 10984 10984 10984 10983 10983 10983 10983 10982 10982 10981 10981 10980 10979 10979 10978 10977 10976 10974 10973 10972 10970 10969 10967 10966 10964 10962
11029 11028 11027 11026 11025 11024 11024 11023 11021 11020 11019 11018 11016 11015 11014 11012 11011 11010 11008 11007 11005 11003 11002 11000 10999 10997 10996 10995 10994 10992 10991 10989 10988 10987 10986 10985 10984 10984 10983 10982 10982 10983 10983 10983 10984 10984 10984 10984 10984 10985 10985 10985 10986 10986 10985 10985 10985 10985 10985 10985 10985 10985 10985 10984 10984 10984 10984 10983 10982 10982 10981 10980 10980 10979 10978 10976 10975 10974 10972 10971 10970 10968 10967 10965 10963
11030 11029 11029 11028 11026 11026 11025 11024 11023 11022 11021 11020 11018 11017 11016 11015 11014 11012 11011 11010 11008 11006 11005 11003 11002 11000 10999 10998 10997 10995 10994 10993 10991 10990 10989 10988 10988 10987 10986 10985 10985 10985 10985 10986 10986 10986 10986 10986 10986 10986 10987 10987 10987 10987 10987 10987 10987 10986 10986 10986 10986 10986 10986 10985 10985 10985 10985 10984 10983 10983 10982 10981 10980 10979 10978 10977 10976 10975 10973 10972 10971 10969 10967 10966 10964
11031 11030 11030 11029 11028 11027 11026 11025 11025 11024 11023 11022 11020 11019 11018 11017 11016 11015 11014 11012 11011 11009 11007 11006 11005 11003 11002 11001 10999 10998 10997 10995 10994 10993 10993 10992 10991 10990 10989 10988 10988 10988 10988 10988 10988 10988 10988 10988 10988 10988 10988 10988 10988 10988 10988 10988 10988 10988 10988 10987 10987 10987 10987 10987 10987 10986 10986 10985 10984 10984 10983 10982 10981 10980 10979 10978 10976 10975 10974 10973 10972 10970 10968 10967 10965
11032 11032 11031 11030 11030 11029 11028 11027 11026 11025 11025 11024 11022 11021 11020 11019 11018 11017 11016 11015 11013 11012 11010 11009 11007 11006 11005 11003 11002 11001 11000 10998 10997 10996 10995 10995 10994 10993 10992 10992 10991 10990 10990 10990 10990 10990 10990 10990 10990 10990 10990 10990 10990 10989 10989 10989 10989 10989 10989 10989 10989 10989 10988 10988 10988 10988 10987 10986 10985 10985 10984 10983 10981 10980 10979 10978 10977 10976 10975 10974 10973 10971 10969 10968 10966
11033 11033 11032 11032 11031 11030 11029 11028 11027 11027 11026 11025 11024 11023 11022 11021 11020 11019 11018 11017 11015 11014 11013 11011 11010 11008 11007 11006 11005 11003 11002 11001 11000 10999 10998 10997 10997 10996 10995 10994 10994 10993 10993 10992 10992 10992 10992 10991 10991 10991 10991 10991 10991 10991 10991 10990 10990 10990 10990 10990 10990 10990 10990 10990 10989 10989 10988 10987 10986 10985 10984 10983 10982 10981 10980 10979 10978 10977 10976 10975 10974 10972 10970 10969 10967
11034 11034 11033 11033 11032 11032 11031 11030 11029 11028 11028 11027 11026 11025 11024 11023 11022 11021 11020 11019 11018 11016 11015 11014 11012 11011 11009 11008 11007 11006 11004 11003 11002 11001 11001 11000 10999 10998 10997 10997 10996 10995 10995 10995 10994 10994 10993 10993 10993 10993 10992 10992 10992 10992 10992 10992 10991 10991 10991 10991 10991 10991 10991 10991 10990 10990 10989 10988 10987 10986 10985 10984 10983 10982 10981 10980 10979 10978 10977 10976 10974 10972 10971 10969 10967
11035 11035 11034 11034 11033 11033 11032 11031 11030 11030 11029 11029 11028 11027 11026 11025 11024 11023 11022 11021 11020 11018 11017 11016 11015 11013 11012 11010 11009 11008 11007 11005 11004 11003 11003 11002 11001 11000 10999 10999 10998 10997 10997 10997 10996 10996 10995 10995 10995 10995 10994 10994 10993 10993 10993 10993 10993 10993 10993 10993 10993 10992 10992 10992 10991 10991 10990 10989 10988 10987 10986 10985 10984 10983 10981 10981 10980 10979 10978 10977 10975 10973 10971 10970 10968
11036 11035 11035 11035 11034 11034 11033 11033 11032 11031 11031 11030 11029 11028 11027 11026 11026 11025 11024 11022 11021 11020 11019 11018 11017 11015 11014 11013 11012 11010 11009 11008 11006 11005 11005 11004 11003 11002 11001 11001 11000 10999 10999 10998 10998 10997 10997 10997 10997 10996 10996 10995 10995 10995 10994 10994 10994 10994 10994 10994 10994 10994 10993 10993 10992 10991 10991 10990 10989 10988 10986 10985 10984 10983 10982 10981 10981 10980 10979 10977 10975 10974 10972 10970 10969
11036 11036 11036 11036 11035 11035 11035 11034 11034 11033 11032 11031 11030 11030 11029 11028 11027 11026 11025 11024 11023 11022 11021 11020 11019 11018 11016 11015 11014 11013 11011 11010 11009 11007 11006 11006 11005 11004 11003 11003 11002 11001 11001 11000 10999 10999 10999 10999 10998 10998 10997 10997 10997 10996 10996 10996 10996 10996 10996 10995 10995 10995 10994 10994 10993 10992 10991 10990 10989 10988 10987 10986 10985 10984 10983 10982 10981 10980 10979 10978 10976 10974 10973 10972 10970
11037 11036 11036 11036 11036 11036 11036 11036 11035 11034 11033 11033 11032 11031 11030 11029 11029 11028 11027 11026 11025 11024 11023 11022 11021 11020 11019 11018 11016 11015 11014 11012 11011 11010 11008 11007 11006 11006 11005 11005 11004 11003 11003 11002 11001 11001 11001 11000 11000 10999 10999 10999 10998 10998 10998 10998 10998 10998 10997 10997 10997 10996 10996 10995 10994 10993 10992 10991 10990 10989 10988 10987 10985 10984 10984 10983 10982 10981 10980 10979 10977 10976 10974 10973 10972
11037 11036 11036 11036 11036 11037 11036 11036 11036 11035 11035 11034 11033 11032 11032 11031 11030 11029 11029 11028 11027 11026 11025 11024 11023 11022 11021 11020 11019 11018 11016 11015 11013 11012 11011 11009 11008 11007 11007 11006 11006 11005 11004 11004 11003 11003 11002 11002 11001 11001 11001 11000 11000 11000 11000 11000 10999 10999 10999 10998 10998 10997 10996 10996 10995 10994 10993 10992 10991 10990 10989 10988 10987 10986 10985 10984 10983 10982 10981 10980 10979 10977 10976 10975 10974
11036 11036 11036 11036 11036 11037 11037 11037 11037 11036 11036 11035 11034 11033 11033 11032 11031 11031 11030 11029 11028 11027 11026 11026 11025 11024 11023 11022 11021 11020 11018 11017 11016 11014 11013 11012 11011 11010 11008 11008 11007 11007 11006 11005 11005 11004 11004 11003 11003 11003 11002 11002 11002 11001 11001 11001 11001 11000 11000 10999 10998 10998 10997 10996 10996 10995 10994 10993 10992 10991 10990 10989 10988 10987 10986 10985 10984 10983 10982 10982 10981 10979 10978 10977 10976
11035 11035 11036 11036 11036 11037 11037 11037 11038 11037 11037 11036 11036 11034 11034 11033 11033 11032 11031 11031 11030 11029 11028 11027 11026 11025 11024 11024 11023 11022 11021 11019 11018 11017 11016 11014 11013 11012 11011 11010 11009 11008 11008 11007 11007 11006 11006 11005 11005 11004 11004 11003 11003 11003 11002 11002 11002 11001 11001 11000 10999 10999 10998 10997 10997 10996 10995 10994 10993 10992 10991 10990 10989 10988 10987 10986 10985 10985 10984 10983 10983 10982 10981 10980 10979